DW1779 Weather Reports


time (UTC)temp
F
wind
direction
speed
knots
gust
knots
rain 1hr
in
rain 24hr
in
rain mn
in
humidity
%
barometer
mb
20260508182541 73 203 3.5 18.2 0.00 0.00 0.00 50 1010.7
20260508182041 74 182 3.5 12.2 0.00 0.00 0.00 48 1010.6
20260508181543 74 204 3.5 11.3 0.00 0.00 0.00 49 1010.7
20260508181040 75 202 2.6 8.7 0.00 0.00 0.00 51 1010.7
20260508180507 74 205 2.6 8.7 0.00 0.00 0.00 52 1010.8
20260508180005 74 213 1.7 8.7 0.00 0.00 0.00 49 1010.8
20260508175505 74 198 3.5 9.6 0.00 0.00 0.00 49 1011.0
20260508175003 74 97 0.9 7.8 0.00 0.00 0.00 55 1011.0
20260508174503 73 214 3.5 7.8 0.00 0.00 0.00 47 1011.1
20260508174002 73 178 2.6 7.8 0.00 0.00 0.00 50 1011.2
20260508173501 73 5 2.6 8.7 0.00 0.00 0.00 49 1011.1
20260508173100 73 210 4.3 11.3 0.00 0.00 0.00 49 1011.3
20260508172602 73 184 4.3 11.3 0.00 0.00 0.00 49 1011.5
20260508172100 73 196 4.3 11.3 0.00 0.00 0.00 49 1011.5
20260508171600 72 298 3.5 11.3 0.00 0.00 0.00 49 1011.5
20260508171100 72 259 3.5 10.4 0.00 0.00 0.00 52 1011.5
20260508170502 72 246 2.6 8.7 0.00 0.00 0.00 52 1011.8
20260508170002 72 276 4.3 8.7 0.00 0.00 0.00 52 1012.0
20260508165500 72 228 2.6 8.7 0.00 0.00 0.00 58 1012.0
20260508165059 71 295 1.7 9.6 0.00 0.00 0.00 52 1012.1
20260508164605 71 269 1.7 9.6 0.00 0.00 0.00 50 1012.3
20260508164059 71 279 2.6 6.1 0.00 0.00 0.00 53 1012.3
20260508163557 71 337 1.7 7.8 0.00 0.00 0.00 54 1012.4
20260508163117 71 279 2.6 7.8 0.00 0.00 0.00 55 1012.4
20260508162557 71 205 4.3 7.8 0.00 0.00 0.00 52 1012.5
20260508162056 71 188 0.9 7.8 0.00 0.00 0.00 58 1012.6
20260508161556 70 150 2.6 9.6 0.00 0.00 0.00 54 1012.7
20260508161053 69 230 2.6 10.4 0.00 0.00 0.00 68 1012.7
20260508160501 68 304 0.9 3.5 0.00 0.00 0.00 65 1013.1
20260508160100 67 340 0.9 3.5 0.00 0.00 0.00 68 1013.1
20260508155559 66 271 0.0 4.3 0.00 0.00 0.00 71 1013.0
20260508155101 66 243 0.9 4.3 0.00 0.00 0.00 68 1013.0
20260508154559 66 279 0.0 2.6 0.00 0.00 0.00 68 1013.3
20260508154054 65 315 0.0 7.8 0.00 0.00 0.00 70 1013.2
20260508153554 64 204 0.9 7.8 0.00 0.00 0.00 70 1013.3
20260508153056 64 278 0.9 2.6 0.00 0.00 0.00 69 1013.4
20260508152552 64 273 0.9 3.5 0.00 0.00 0.00 67 1013.5
20260508152052 64 193 0.9 3.5 0.00 0.00 0.00 70 1013.4
20260508151552 64 194 0.0 3.5 0.00 0.00 0.00 72 1013.4
20260508151050 63 265 0.9 3.5 0.00 0.00 0.00 71 1013.5
20260508150648 62 65 0.0 6.1 0.00 0.00 0.00 71 1013.6
20260508150052 61 194 0.9 6.1 0.00 0.00 0.00 72 1013.5
20260508145550 61 146 1.7 5.2 0.00 0.00 0.00 73 1013.4
20260508145052 61 244 2.6 6.1 0.00 0.00 0.00 70 1013.3
20260508144549 60 188 1.7 4.3 0.00 0.00 0.00 71 1013.5
20260508144047 59 199 0.0 6.1 0.00 0.00 0.00 77 1013.6
20260508143546 59 202 0.9 6.1 0.00 0.00 0.00 74 1013.5
20260508143048 58 151 0.9 3.5 0.00 0.00 0.00 73 1013.7
20260508142544 58 190 1.7 4.3 0.00 0.00 0.00 74 1013.8
20260508142048 58 174 1.7 5.2 0.00 0.00 0.00 75 1013.8
20260508141545 58 161 1.7 5.2 0.00 0.00 0.00 72 1013.9
20260508141044 58 134 0.9 5.2 0.00 0.00 0.00 75 1013.9
20260508140646 58 179 2.6 5.2 0.00 0.00 0.00 73 1014.0
20260508140053 58 162 1.7 7.0 0.00 0.00 0.00 72 1014.0
20260508135553 58 196 2.6 7.0 0.00 0.00 0.00 73 1014.0
20260508135052 58 137 1.7 7.0 0.00 0.00 0.00 73 1014.0
20260508134550 57 174 0.9 5.2 0.00 0.00 0.00 77 1014.0
20260508134048 57 169 1.7 6.1 0.00 0.00 0.00 76 1014.0
20260508133550 57 136 2.6 6.1 0.00 0.00 0.00 75 1014.1
20260508133048 56 121 0.9 5.2 0.00 0.00 0.00 80 1014.2
20260508132545 56 194 0.9 5.2 0.00 0.00 0.00 81 1014.1
20260508132042 55 146 0.9 5.2 0.00 0.00 0.00 84 1014.1
20260508131552 55 100 0.9 7.0 0.00 0.00 0.00 83 1014.2
20260508131042 55 98 1.7 7.0 0.00 0.00 0.00 83 1014.2
20260508130511 54 159 3.5 7.8 0.00 0.00 0.00 81 1014.1
20260508130012 54 166 2.6 7.0 0.00 0.00 0.00 84 1014.0
20260508125509 53 184 1.7 5.2 0.00 0.00 0.00 86 1013.9
20260508125008 52 163 1.7 5.2 0.00 0.00 0.00 88 1013.9
20260508124506 50 163 0.9 2.6 0.00 0.00 0.00 91 1014.0
20260508124005 50 216 0.0 6.1 0.00 0.00 0.00 90 1014.1
20260508123505 50 204 0.9 6.1 0.00 0.00 0.00 90 1014.1
20260508123006 50 175 0.9 5.2 0.00 0.00 0.00 90 1014.0
20260508122501 49 90 0.9 5.2 0.00 0.00 0.00 89 1014.0
20260508122002 49 134 0.9 2.6 0.00 0.00 0.00 89 1013.9
20260508121600 48 144 0.9 3.5 0.00 0.00 0.00 89 1013.9
20260508121058 48 126 1.7 3.5 0.00 0.00 0.00 89 1013.9
20260508120508 47 134 0.9 3.5 0.00 0.00 0.00 89 1013.8
20260508120004 47 121 0.9 2.6 0.00 0.00 0.00 90 1013.7
20260508115503 46 155 0.9 2.6 0.00 0.00 0.00 91 1013.7
20260508115100 46 126 0.9 2.6 0.00 0.00 0.00 91 1013.6
20260508114559 45 121 1.7 3.5 0.00 0.00 0.00 91 1013.7
20260508114058 45 130 0.9 3.5 0.00 0.00 0.00 90 1013.7
20260508113557 45 134 0.9 4.3 0.00 0.00 0.00 90 1013.7
20260508113059 45 159 0.9 4.3 0.00 0.00 0.00 90 1013.7
20260508112555 45 159 0.9 4.3 0.00 0.00 0.00 89 1013.6
20260508112055 45 130 0.9 5.2 0.00 0.00 0.00 89 1013.4
20260508111556 45 129 2.6 5.2 0.00 0.00 0.00 90 1013.4
20260508111054 45 136 0.9 3.5 0.00 0.00 0.00 90 1013.4
20260508110655 45 161 1.7 4.3 0.00 0.00 0.00 90 1013.4
20260508110123 45 161 1.7 4.3 0.00 0.00 0.00 90 1013.6
20260508105556 45 144 1.7 4.3 0.00 0.00 0.00 90 1013.5
20260508105056 45 127 0.9 2.6 0.00 0.00 0.00 90 1013.6
20260508104602 45 144 0.9 4.3 0.00 0.00 0.00 90 1013.7
20260508104055 45 126 0.9 4.3 0.00 0.00 0.00 90 1013.7
20260508103554 45 124 0.9 3.5 0.00 0.00 0.00 90 1013.6
20260508103057 45 133 0.9 2.6 0.00 0.00 0.00 91 1013.6
20260508102552 44 136 0.0 2.6 0.00 0.00 0.00 92 1013.6
20260508102054 44 117 0.9 2.6 0.00 0.00 0.00 92 1013.7
20260508101555 44 138 0.9 2.6 0.00 0.00 0.00 92 1013.7
20260508101051 44 150 0.9 2.6 0.00 0.00 0.00 92 1013.8
20260508100651 44 155 0.0 2.6 0.00 0.00 0.00 92 1013.9
20260508100053 44 165 0.9 2.6 0.00 0.00 0.00 93 1013.9
20260508095557 44 151 0.9 2.6 0.00 0.00 0.00 93 1014.0
20260508095054 44 142 0.9 2.6 0.00 0.00 0.00 93 1013.9
20260508094555 43 138 0.9 2.6 0.00 0.00 0.00 93 1013.9
20260508094051 43 155 0.0 2.6 0.00 0.00 0.00 93 1013.8
20260508093551 43 136 0.0 2.6 0.00 0.00 0.00 93 1013.9
20260508093058 43 136 0.0 0.9 0.00 0.00 0.00 93 1013.9
20260508092549 43 136 0.0 0.9 0.00 0.00 0.00 93 1014.0
20260508092048 44 142 0.0 0.9 0.00 0.00 0.00 93 1014.0
20260508091549 43 142 0.0 0.0 0.00 0.00 0.00 93 1013.9
20260508091048 43 142 0.0 0.0 0.00 0.00 0.00 93 1014.0
20260508090650 43 142 0.0 1.7 0.00 0.00 0.00 93 1014.0
20260508090104 43 142 0.0 1.7 0.00 0.00 0.00 93 1013.9
20260508085546 43 145 0.0 0.9 0.00 0.00 0.00 93 1014.1
20260508085045 43 145 0.0 0.9 0.00 0.00 0.00 93 1014.1
20260508084545 44 144 0.0 0.9 0.00 0.00 0.00 93 1014.1
20260508084048 43 132 0.0 0.9 0.00 0.00 0.00 93 1014.2
20260508083548 43 132 0.0 0.9 0.00 0.00 0.00 93 1014.2
20260508083044 43 132 0.0 0.9 0.00 0.00 0.00 93 1014.2
20260508082544 43 153 0.0 2.6 0.00 0.00 0.00 93 1014.2
20260508082044 43 153 0.0 2.6 0.00 0.00 0.00 93 1014.2
20260508081545 43 123 0.0 0.9 0.00 0.00 0.00 93 1014.2
20260508081042 44 157 0.0 0.9 0.00 0.00 0.00 93 1014.1
20260508080643 44 157 0.0 0.9 0.00 0.00 0.00 93 1014.2
20260508080104 44 157 0.0 0.9 0.00 0.00 0.00 93 1014.1
20260508075559 44 157 0.0 0.9 0.00 0.00 0.00 93 1014.2
20260508075057 44 157 0.0 0.9 0.00 0.00 0.00 93 1014.4
20260508074557 44 157 0.0 0.9 0.00 0.00 0.00 92 1014.2
20260508074059 43 157 0.0 0.9 0.00 0.00 0.00 92 1014.4
20260508073557 44 157 0.0 0.9 0.00 0.00 0.00 92 1014.4
20260508073057 44 157 0.0 0.9 0.00 0.00 0.00 92 1014.4
20260508072556 44 157 0.0 0.9 0.00 0.00 0.00 92 1014.4
20260508072057 44 157 0.0 0.9 0.00 0.00 0.00 92 1014.4
20260508071554 44 157 0.0 0.0 0.00 0.00 0.00 92 1014.5
20260508071055 44 157 0.0 0.0 0.00 0.00 0.00 92 1014.6
20260508070654 44 157 0.0 0.0 0.00 0.00 0.00 92 1014.5
20260508070056 44 157 0.0 0.0 0.00 0.00 0.00 92 1014.5
20260508065558 44 157 0.0 0.9 0.00 0.00 0.00 92 1014.5
20260508065055 44 157 0.0 0.9 0.00 0.00 0.00 92 1014.6
20260508064555 44 147 0.0 0.9 0.00 0.00 0.00 92 1014.6
20260508064055 44 147 0.0 0.9 0.00 0.00 0.00 92 1014.6
20260508063553 44 147 0.0 0.9 0.00 0.00 0.00 92 1014.7
20260508063055 43 147 0.0 1.7 0.00 0.00 0.00 92 1014.7
20260508062551 44 147 0.0 1.7 0.00 0.00 0.00 92 1014.8
20260508062052 44 147 0.0 1.7 0.00 0.00 0.00 92 1014.9
20260508061551 44 189 0.0 0.9 0.00 0.00 0.00 92 1014.8
20260508061050 44 189 0.0 1.7 0.00 0.00 0.00 92 1015.0
20260508060651 44 189 0.9 1.7 0.00 0.00 0.00 92 1015.0
20260508060054 44 189 0.9 1.7 0.00 0.00 0.00 92 1015.1
20260508055551 44 189 0.0 1.7 0.00 0.00 0.00 92 1015.2
20260508055051 44 189 0.0 1.7 0.00 0.00 0.00 92 1015.2
20260508054613 44 189 0.0 0.9 0.00 0.00 0.00 92 1015.1
20260508054049 44 189 0.0 0.9 0.00 0.00 0.00 92 1015.3
20260508053552 44 189 0.0 0.9 0.00 0.00 0.00 92 1015.3
20260508053049 44 189 0.0 1.7 0.00 0.00 0.00 92 1015.3
20260508052550 44 189 0.0 1.7 0.00 0.00 0.00 92 1015.3
20260508052047 44 189 0.0 0.9 0.00 0.00 0.00 92 1015.4
20260508051547 44 189 0.0 0.0 0.00 0.00 0.00 92 1015.5
20260508051047 44 189 0.0 0.0 0.00 0.00 0.00 92 1015.5
20260508050646 44 189 0.0 0.9 0.00 0.00 0.00 92 1015.4
20260508050043 44 189 0.0 0.9 0.00 0.00 0.00 92 1015.3
20260508045542 44 189 0.0 0.9 0.00 0.00 0.00 92 1015.4
20260508045042 44 189 0.0 0.9 0.00 0.00 0.00 92 1015.5
20260508044554 44 189 0.0 0.0 0.00 0.00 0.00 92 1015.6
20260508044042 44 189 0.0 0.9 0.00 0.00 0.00 92 1015.6
20260508043543 44 189 0.0 0.9 0.00 0.00 0.00 92 1015.6
20260508043043 44 189 0.0 0.9 0.00 0.00 0.00 92 1015.7
20260508042542 44 189 0.0 0.0 0.00 0.00 0.00 92 1015.7
20260508042041 44 189 0.0 0.9 0.00 0.00 0.00 91 1015.7
20260508041551 44 189 0.0 0.9 0.00 0.00 0.00 92 1015.7
20260508041041 45 189 0.0 0.9 0.00 0.00 0.00 91 1015.7
20260508040643 45 189 0.0 0.9 0.00 0.00 0.00 91 1015.7
20260508040048 45 189 0.0 0.9 0.00 0.00 0.00 91 1015.7
20260508035541 45 189 0.0 0.9 0.00 0.00 0.00 91 1015.8
20260508035041 45 189 0.0 0.9 0.00 0.00 0.00 91 1015.8
20260508034541 45 189 0.0 0.9 0.00 0.00 0.00 90 1015.9
20260508034041 45 189 0.0 0.9 0.00 0.00 0.00 90 1015.9
20260508033541 45 189 0.0 0.9 0.00 0.00 0.00 90 1015.9
20260508033040 46 189 0.0 0.9 0.00 0.00 0.00 89 1015.8
20260508032543 46 189 0.0 0.0 0.00 0.00 0.00 89 1015.8
20260508032042 46 189 0.0 0.0 0.00 0.00 0.00 89 1015.7
20260508031554 46 189 0.0 0.0 0.00 0.00 0.00 89 1015.6
20260508031039 46 189 0.0 0.0 0.00 0.00 0.00 89 1015.7
20260508030639 46 189 0.0 0.0 0.00 0.00 0.00 88 1015.6
20260508030114 46 189 0.0 0.0 0.00 0.00 0.00 88 1015.5
20260508025600 47 189 0.0 0.0 0.00 0.00 0.00 87 1015.4
20260508025100 47 189 0.0 0.0 0.00 0.00 0.00 87 1015.4
20260508024607 47 189 0.0 0.0 0.00 0.00 0.00 86 1015.4
20260508024059 47 189 0.0 0.9 0.00 0.00 0.00 86 1015.2
20260508023558 48 189 0.0 0.9 0.00 0.00 0.00 85 1015.2
20260508023058 48 189 0.0 0.9 0.00 0.00 0.00 84 1015.1
20260508022557 48 189 0.0 0.9 0.00 0.00 0.00 84 1015.1
20260508022057 49 189 0.0 0.9 0.00 0.00 0.00 83 1015.1
20260508021615 49 189 0.0 0.9 0.00 0.00 0.00 82 1014.9
20260508021059 49 189 0.0 0.0 0.00 0.00 0.00 81 1014.9
20260508020656 50 189 0.0 0.0 0.00 0.00 0.00 80 1014.8
20260508020054 50 189 0.0 0.0 0.00 0.00 0.00 78 1014.7
20260508015554 50 189 0.0 0.0 0.00 0.00 0.00 77 1014.6
20260508015053 51 189 0.0 0.0 0.00 0.00 0.00 76 1014.6
20260508014553 51 189 0.0 0.0 0.00 0.00 0.00 76 1014.5
20260508014053 52 189 0.0 0.0 0.00 0.00 0.00 77 1014.5
20260508013552 52 189 0.0 0.0 0.00 0.00 0.00 76 1014.4
20260508013056 52 189 0.0 0.0 0.00 0.00 0.00 75 1014.4
20260508012552 53 189 0.0 0.0 0.00 0.00 0.00 73 1014.4
20260508012055 53 189 0.0 0.0 0.00 0.00 0.00 73 1014.4
20260508011559 54 189 0.0 0.0 0.00 0.00 0.00 71 1014.3
20260508011056 54 189 0.0 0.0 0.00 0.00 0.00 71 1014.2
20260508010654 55 189 0.0 0.0 0.00 0.00 0.00 70 1014.3
20260508010054 55 189 0.0 0.9 0.00 0.00 0.00 68 1014.2
20260508005555 56 189 0.0 0.9 0.00 0.00 0.00 65 1014.1
20260508005058 57 189 0.0 0.9 0.00 0.00 0.00 62 1014.0
20260508004559 58 189 0.0 0.9 0.00 0.00 0.00 61 1014.1
20260508004053 58 190 0.0 0.9 0.00 0.00 0.00 59 1014.1
20260508003552 60 190 0.0 1.7 0.00 0.00 0.00 59 1014.1
20260508003103 61 199 0.9 3.5 0.00 0.00 0.00 53 1014.0
20260508002552 62 230 0.9 3.5 0.00 0.00 0.00 49 1014.0
20260508002051 62 195 0.9 1.7 0.00 0.00 0.00 49 1014.0
20260508001552 62 222 0.0 4.3 0.00 0.00 0.00 49 1014.0
20260508001051 63 240 0.9 5.2 0.00 0.00 0.00 49 1013.9
20260508000651 63 275 0.9 5.2 0.00 0.00 0.00 48 1013.9
20260508000050 64 190 0.0 3.5 0.00 0.00 0.00 46 1013.9
20260507235550 64 163 0.9 4.3 0.00 0.00 0.00 46 1013.8
20260507235049 64 202 0.9 4.3 0.00 0.00 0.00 47 1013.9
20260507234550 64 323 0.9 4.3 0.00 0.00 0.00 47 1013.9
20260507234051 64 310 1.7 7.8 0.00 0.00 0.00 47 1013.8
20260507233548 64 306 0.9 7.8 0.00 0.00 0.00 47 1013.9
20260507233048 64 158 2.6 7.8 0.00 0.00 0.00 45 1014.0
20260507232548 65 260 0.9 5.2 0.00 0.00 0.00 45 1014.1
20260507232047 64 186 1.7 7.0 0.00 0.00 0.00 45 1014.1
20260507231555 65 181 0.9 6.1 0.00 0.00 0.00 44 1014.1
20260507231046 65 307 0.9 6.1 0.00 0.00 0.00 45 1014.1
20260507230646 65 266 0.9 4.3 0.00 0.00 0.00 46 1014.2
20260507230047 64 250 0.9 6.1 0.00 0.00 0.00 47 1014.2
20260507225548 64 157 1.7 7.8 0.00 0.00 0.00 46 1014.3
20260507225048 64 228 3.5 7.8 0.00 0.00 0.00 43 1014.3
20260507224558 64 206 2.6 6.1 0.00 0.00 0.00 43 1014.4
20260507224044 64 198 1.7 4.3 0.00 0.00 0.00 43 1014.5
20260507223549 64 43 0.9 8.7 0.00 0.00 0.00 44 1014.6
20260507223048 65 75 0.9 8.7 0.00 0.00 0.00 46 1014.6
20260507222548 65 154 2.6 7.0 0.00 0.00 0.00 43 1014.5
20260507222044 65 223 2.6 12.2 0.00 0.00 0.00 46 1014.5
20260507221545 65 206 4.3 12.2 0.00 0.00 0.00 45 1014.6
20260507221044 65 209 1.7 8.7 0.00 0.00 0.00 46 1014.5
20260507220644 64 271 0.0 4.3 0.00 0.00 0.00 46 1014.5
20260507220044 63 284 0.9 7.8 0.00 0.00 0.00 45 1014.6
20260507215544 64 261 2.6 7.8 0.00 0.00 0.00 44 1014.6
20260507215043 65 267 0.9 9.6 0.00 0.00 0.00 46 1014.6
20260507214543 65 212 1.7 9.6 0.00 0.00 0.00 47 1014.6
20260507214041 64 283 0.9 8.7 0.00 0.00 0.00 45 1014.6
20260507213541 64 296 3.5 8.7 0.00 0.00 0.00 43 1014.7
20260507213048 65 257 2.6 6.1 0.00 0.00 0.00 42 1014.8
20260507212540 66 313 0.9 4.3 0.00 0.00 0.00 45 1014.8
20260507212039 66 267 0.9 7.0 0.00 0.00 0.00 48 1014.9
20260507211539 64 227 0.9 7.0 0.00 0.00 0.00 45 1015.0
20260507211038 65 267 1.7 8.7 0.00 0.00 0.00 48 1015.0
20260507210640 66 188 0.9 8.7 0.00 0.00 0.00 43 1015.0
20260507210121 66 218 1.7 6.1 0.00 0.00 0.00 41 1015.0
20260507205558 66 253 3.5 7.0 0.00 0.00 0.00 42 1015.2
20260507205058 66 166 0.9 10.4 0.00 0.00 0.00 46 1015.3
20260507204604 66 294 2.6 10.4 0.00 0.00 0.00 42 1015.2
20260507204059 66 327 2.6 10.4 0.00 0.00 0.00 43 1015.3
20260507203556 66 232 3.5 8.7 0.00 0.00 0.00 43 1015.5
20260507203058 67 294 2.6 7.0 0.00 0.00 0.00 46 1015.5
20260507202554 67 254 1.7 7.0 0.00 0.00 0.00 43 1015.6
20260507202056 66 262 1.7 11.3 0.00 0.00 0.00 44 1015.5
20260507201553 66 155 0.9 11.3 0.00 0.00 0.00 46 1015.7
20260507201053 65 190 2.6 6.1 0.00 0.00 0.00 44 1015.8
20260507200652 66 303 1.7 6.1 0.00 0.00 0.00 46 1015.9
20260507200105 65 37 0.9 9.6 0.00 0.00 0.00 42 1016.1
20260507195556 66 223 1.7 10.4 0.00 0.00 0.00 44 1016.2
20260507195053 66 52 2.6 10.4 0.00 0.00 0.00 41 1016.3
20260507194553 65 160 3.5 9.6 0.00 0.00 0.00 41 1016.1
20260507194055 65 172 5.2 10.4 0.00 0.00 0.00 43 1016.2
20260507193552 65 146 4.3 13.0 0.00 0.00 0.00 42 1016.2
20260507193110 65 355 1.7 13.0 0.00 0.00 0.00 41 1016.2
20260507192552 65 279 2.6 8.7 0.00 0.00 0.00 38 1016.2
20260507192053 65 207 0.9 8.7 0.00 0.00 0.00 47 1016.3
20260507191557 65 355 1.7 7.0 0.00 0.00 0.00 43 1016.4
20260507191050 64 272 2.6 9.6 0.00 0.00 0.00 42 1016.4
20260507190649 64 300 4.3 9.6 0.00 0.00 0.00 41 1016.5
20260507190054 65 341 3.5 12.2 0.00 0.00 0.00 42 1016.5
20260507185552 64 256 3.5 11.3 0.00 0.00 0.00 45 1016.5
20260507185052 64 207 2.6 8.7 0.00 0.00 0.00 40 1016.6
20260507184551 63 176 1.7 6.1 0.00 0.00 0.00 46 1016.7
20260507184047 64 290 1.7 8.7 0.00 0.00 0.00 43 1016.8
20260507183546 64 288 4.3 8.7 0.00 0.00 0.00 48 1016.9
20260507183057 64 288 2.6 8.7 0.00 0.00 0.00 47 1016.9